Location: Napa Junction
(38.1874°N, 122.2508°W)
Time: 15:56:09
(UTC+00:00)

DELTA 2 R/B (1) - Pass Details

Date: 08 September 2024
Orbit: 788 x 800 km, 39.6° (Epoch: 08 October)

Event Time Altitude Azimuth Distance (km) Brightness Sun altitude
Exits shadow 13:11:22 - 268° (W) 2,485 5.5 -7.4°
Reaches altitude 10° 13:11:43 10° 268° (W) 2,354 5.4 -7.3°
Maximum altitude 13:17:17 78° 354° (N) 809 3.7 -6.3°
Drops below altitude 10° 13:22:50 10° 82° (E) 2,347 8.0 -5.2°
Sets 13:25:19 0° 84° (E) 3,275 9.6 -4.7°
